EW6795 Weather Reports


Display with metric or nautical units.
time (UTC)temp
F
wind
direction
speed
MPH
gust
MPH
rain 1hr
in
rain 24hr
in
rain mn
in
humidity
%
barometer
mb
20190916004635 60 170 2.0 3.0 0.00 0.79 0.67 89 1007.5
20190916004134 60 121 1.0 3.0 0.00 0.79 0.67 89 1007.5
20190916003634 61 207 1.0 4.0 0.00 0.79 0.67 88 1007.5
20190916003133 61 207 1.0 5.0 0.00 0.79 0.67 88 1007.5
20190916002632 61 172 2.0 5.0 0.00 0.79 0.67 88 1007.5
20190916002131 61 178 2.0 5.0 0.00 0.79 0.67 88 1007.5
20190916001630 60 183 1.0 5.0 0.00 0.79 0.67 88 1007.5
20190916001129 60 171 1.0 5.0 0.00 0.79 0.67 88 1007.5
20190916000629 60 128 1.0 6.0 0.00 0.79 0.67 88 1007.5
20190916000128 60 168 3.0 6.0 0.00 0.79 0.67 88 1007.5
20190915235627 60 103 1.0 6.0 0.00 0.79 0.67 90 1007.5
20190915235126 60 176 2.0 6.0 0.00 0.79 0.67 89 1007.5
20190915234626 60 152 1.0 6.0 0.00 0.79 0.67 89 1007.5
20190915234125 60 156 3.0 6.0 0.00 0.79 0.67 88 1007.5
20190915233621 60 150 2.0 6.0 0.00 0.79 0.67 88 1007.5
20190915233120 60 178 2.0 6.0 0.00 0.79 0.67 89 1007.5
20190915232621 60 111 1.0 6.0 0.00 0.79 0.67 89 1007.5
20190915232120 60 163 1.0 6.0 0.00 0.79 0.67 90 1007.5
20190915231618 60 232 1.0 6.0 0.00 0.79 0.67 89 1007.5
20190915231118 60 147 3.0 6.0 0.00 0.79 0.67 91 1007.5
20190915230617 60 205 1.0 4.0 0.00 0.79 0.67 90 1007.5
20190915230115 60 187 2.0 4.0 0.00 0.79 0.67 91 1007.5
20190915225615 60 158 2.0 5.0 0.00 0.79 0.67 91 1007.5
20190915225114 60 178 2.0 5.0 0.00 0.79 0.67 91 1007.5
20190915224613 60 123 1.0 5.0 0.00 0.79 0.67 91 1007.5
20190915224112 60 142 2.0 8.0 0.00 0.79 0.67 91 1007.5
20190915223611 60 190 2.0 8.0 0.00 0.79 0.67 91 1007.5
20190915223109 60 149 2.0 8.0 0.00 0.79 0.67 91 1007.5
20190915222609 60 154 3.0 8.0 0.00 0.79 0.67 91 1007.5
20190915222108 59 173 2.0 4.0 0.00 0.79 0.67 93 1007.5
20190915221607 59 182 2.0 3.0 0.00 0.79 0.67 92 1007.5
20190915221106 59 111 1.0 5.0 0.00 0.79 0.67 92 1007.5
20190915220605 59 190 1.0 5.0 0.00 0.79 0.67 91 1007.5
20190915220104 59 122 1.0 6.0 0.00 0.79 0.67 92 1007.5
20190915215603 59 162 2.0 7.0 0.01 0.79 0.67 90 1007.5
20190915215102 59 165 1.0 7.0 0.01 0.79 0.67 91 1007.5
20190915214601 59 159 2.0 7.0 0.01 0.79 0.67 90 1007.5
20190915214100 59 171 4.0 7.0 0.01 0.79 0.67 90 1007.8
20190915213559 59 143 1.0 6.0 0.01 0.79 0.67 90 1007.8
20190915213058 59 160 1.0 6.0 0.01 0.79 0.67 90 1007.5
20190915212558 59 182 3.0 6.0 0.01 0.79 0.67 90 1007.8
20190915212057 59 167 1.0 5.0 0.01 0.79 0.67 92 1007.5
20190915211556 59 168 1.0 5.0 0.01 0.79 0.67 92 1007.5
20190915211055 59 141 2.0 4.0 0.01 0.79 0.67 93 1007.5
20190915210555 59 146 2.0 4.0 0.01 0.79 0.67 93 1007.5
20190915210054 59 152 1.0 4.0 0.01 0.79 0.67 92 1007.5
20190915205554 59 144 1.0 7.0 0.01 0.78 0.66 92 1007.8
20190915205053 59 195 1.0 7.0 0.01 0.78 0.66 92 1007.5
20190915204552 59 130 1.0 7.0 0.01 0.78 0.66 92 1007.5
20190915204051 59 150 2.0 7.0 0.01 0.78 0.66 93 1007.5
20190915203550 58 162 1.0 4.0 0.01 0.78 0.66 93 1007.5
20190915203050 58 136 1.0 3.0 0.01 0.78 0.66 94 1007.5
20190915202549 58 147 1.0 6.0 0.01 0.78 0.66 94 1007.8
20190915202048 58 159 1.0 6.0 0.01 0.78 0.66 94 1007.5
20190915201547 58 160 2.0 6.0 0.01 0.78 0.66 94 1007.5
20190915201047 58 159 1.0 6.0 0.01 0.78 0.66 93 1007.5
20190915200546 59 164 2.0 4.0 0.02 0.78 0.66 94 1007.5
20190915200045 59 148 1.0 4.0 0.04 0.78 0.66 93 1007.5
20190915195544 59 172 2.0 4.0 0.04 0.77 0.65 94 1007.5
20190915195042 59 142 1.0 2.0 0.05 0.77 0.65 94 1007.5
20190915194541 58 113 1.0 2.0 0.06 0.77 0.65 94 1007.5
20190915194040 58 165 1.0 2.0 0.07 0.77 0.65 94 1007.5
20190915193539 58 165 1.0 4.0 0.07 0.77 0.65 95 1007.5
20190915193038 58 119 1.0 4.0 0.07 0.77 0.65 95 1007.5
20190915192538 58 167 1.0 4.0 0.08 0.77 0.65 95 1007.5
20190915192037 58 185 1.0 4.0 0.08 0.77 0.65 95 1007.5
20190915191536 58 173 2.0 4.0 0.09 0.77 0.65 95 1007.5
20190915191036 58 145 2.0 4.0 0.09 0.77 0.65 94 1007.5
20190915190534 58 159 2.0 4.0 0.08 0.75 0.64 94 1007.5
20190915190033 58 145 2.0 9.0 0.07 0.74 0.62 94 1007.8
20190915185531 58 168 2.0 9.0 0.07 0.73 0.61 94 1007.8
20190915185030 58 136 2.0 9.0 0.06 0.72 0.60 94 1007.8
20190915184530 58 139 2.0 4.0 0.06 0.71 0.59 95 1007.8
20190915184028 58 145 1.0 4.0 0.06 0.70 0.58 95 1007.8
20190915183527 58 160 1.0 2.0 0.07 0.70 0.58 95 1007.5
20190915183016 58 114 0.0 3.0 0.07 0.70 0.58 95 1007.5
20190915182515 58 167 0.0 3.0 0.07 0.69 0.57 95 1007.5
20190915182015 58 195 1.0 3.0 0.08 0.69 0.57 95 1007.5
20190915181514 58 130 2.0 3.0 0.08 0.68 0.56 95 1007.5
20190915181013 58 166 2.0 3.0 0.08 0.68 0.56 95 1007.5
20190915180512 58 151 1.0 3.0 0.08 0.67 0.55 95 1007.5
20190915180011 58 144 1.0 3.0 0.08 0.67 0.55 95 1007.1
20190915175510 58 124 0.0 3.0 0.08 0.66 0.54 95 1007.1
20190915175010 58 132 2.0 3.0 0.08 0.66 0.54 95 1007.5
20190915174509 58 120 0.0 3.0 0.08 0.65 0.53 95 1007.5
20190915174009 58 119 1.0 4.0 0.07 0.64 0.52 95 1007.5
20190915173507 58 150 2.0 4.0 0.06 0.63 0.51 94 1007.5
20190915173006 58 129 1.0 7.0 0.06 0.63 0.51 94 1007.1
20190915172506 58 185 1.0 7.0 0.05 0.62 0.50 94 1007.1
20190915172004 58 125 1.0 7.0 0.05 0.61 0.49 93 1007.5
20190915171503 58 146 2.0 7.0 0.04 0.60 0.48 93 1007.5
20190915171002 58 175 2.0 11.0 0.04 0.60 0.48 93 1007.5
20190915170502 58 164 2.0 11.0 0.03 0.59 0.47 93 1007.1
20190915170001 59 129 3.0 11.0 0.04 0.59 0.47 94 1007.1
20190915165500 59 178 4.0 11.0 0.03 0.58 0.46 93 1007.1
20190915164959 59 140 2.0 11.0 0.03 0.58 0.46 94 1007.1
20190915164458 59 142 1.0 11.0 0.02 0.57 0.45 95 1007.1
20190915163957 59 137 1.0 11.0 0.03 0.57 0.45 95 1007.1
20190915163457 59 189 4.0 11.0 0.03 0.57 0.45 95 1006.8
20190915162955 59 124 2.0 6.0 0.03 0.57 0.45 95 1006.8
20190915162454 59 160 0.0 5.0 0.03 0.57 0.45 95 1006.8
20190915161953 59 141 1.0 5.0 0.02 0.56 0.44 95 1006.8
20190915161452 59 130 2.0 6.0 0.03 0.56 0.44 95 1006.8
20190915160952 59 163 1.0 6.0 0.03 0.56 0.44 95 1006.8
20190915160451 59 160 2.0 6.0 0.03 0.56 0.44 95 1006.8
20190915155950 59 152 1.0 6.0 0.03 0.55 0.43 95 1006.4
20190915155449 59 139 1.0 5.0 0.04 0.55 0.43 96 1006.4
20190915154949 59 195 2.0 5.0 0.05 0.55 0.43 96 1006.4
20190915154448 59 202 2.0 5.0 0.06 0.55 0.43 96 1006.4
20190915153947 59 172 3.0 5.0 0.05 0.54 0.42 95 1006.4
20190915153446 59 161 2.0 4.0 0.05 0.54 0.42 95 1006.4
20190915152945 59 187 1.0 3.0 0.05 0.54 0.42 95 1006.4
20190915152444 59 128 2.0 3.0 0.05 0.54 0.42 95 1006.1
20190915151944 59 140 1.0 2.0 0.05 0.54 0.42 95 1006.4
20190915151443 59 140 1.0 3.0 0.04 0.53 0.41 95 1006.4
20190915150942 59 144 0.0 3.0 0.04 0.53 0.41 95 1006.4
20190915150441 59 140 1.0 3.0 0.05 0.53 0.41 95 1006.8
20190915145940 59 123 2.0 3.0 0.04 0.52 0.40 95 1006.8
20190915145439 59 122 1.0 4.0 0.03 0.51 0.39 95 1006.8
20190915144938 59 173 1.0 4.0 0.02 0.50 0.38 95 1006.8
20190915144438 59 133 2.0 5.0 0.01 0.49 0.37 95 1006.8
20190915143937 59 124 2.0 6.0 0.01 0.49 0.37 94 1006.4
20190915143436 59 193 1.0 6.0 0.01 0.49 0.37 94 1006.4
20190915142935 59 177 3.0 8.0 0.02 0.49 0.37 94 1006.4
20190915142435 59 177 2.0 8.0 0.03 0.49 0.37 95 1006.4
20190915141934 59 148 2.0 8.0 0.03 0.49 0.37 95 1006.4
20190915141433 59 173 3.0 8.0 0.03 0.49 0.37 95 1006.4
20190915140932 59 165 2.0 8.0 0.04 0.49 0.37 95 1006.4
20190915140431 59 170 2.0 8.0 0.03 0.48 0.36 95 1006.4
20190915135931 59 149 2.0 8.0 0.04 0.48 0.36 95 1006.4
20190915135430 59 183 2.0 9.0 0.04 0.48 0.36 95 1006.1
20190915134929 59 169 2.0 9.0 0.04 0.48 0.36 95 1005.8
20190915134429 59 146 3.0 9.0 0.04 0.48 0.36 95 1006.1
20190915133928 59 146 2.0 9.0 0.04 0.48 0.36 95 1006.1
20190915133427 59 153 3.0 6.0 0.04 0.48 0.36 95 1006.4
20190915132926 59 164 2.0 6.0 0.03 0.47 0.35 95 1006.4
20190915132425 59 157 1.0 5.0 0.02 0.46 0.34 95 1006.4
20190915131925 59 150 2.0 6.0 0.02 0.46 0.34 95 1006.4
20190915131423 59 152 2.0 7.0 0.02 0.46 0.34 95 1006.8
20190915130922 59 172 2.0 7.0 0.01 0.45 0.33 95 1006.4
20190915130422 59 164 2.0 7.0 0.01 0.45 0.33 95 1006.4
20190915125921 59 158 2.0 7.0 0.01 0.44 0.32 95 1006.8
20190915125420 59 175 3.0 6.0 0.01 0.44 0.32 95 1006.8
20190915124919 59 152 2.0 6.0 0.02 0.44 0.32 95 1006.8
20190915124418 59 169 1.0 7.0 0.02 0.44 0.32 95 1006.8
20190915123917 59 195 2.0 7.0 0.03 0.44 0.32 95 1006.8
20190915123416 59 213 2.0 7.0 0.04 0.44 0.32 95 1006.8
20190915122915 59 179 3.0 7.0 0.04 0.44 0.32 96 1006.8
20190915122414 59 115 1.0 5.0 0.04 0.44 0.32 95 1006.1
20190915121914 59 180 2.0 5.0 0.04 0.44 0.32 95 1006.4
20190915121413 59 94 1.0 6.0 0.05 0.44 0.32 96 1006.4
20190915120912 59 104 2.0 6.0 0.05 0.44 0.32 95 1006.8
20190915120412 59 168 2.0 6.0 0.05 0.44 0.32 95 1006.8
20190915115910 58 145 2.0 6.0 0.04 0.43 0.31 95 1006.8
20190915115410 58 168 2.0 6.0 0.04 0.43 0.31 95 1006.8
20190915114909 58 178 2.0 6.0 0.03 0.42 0.30 95 1006.4
20190915114408 58 154 2.0 6.0 0.03 0.42 0.30 95 1006.4
20190915113907 58 125 2.0 6.0 0.02 0.41 0.29 95 1006.4
20190915113406 58 135 2.0 5.0 0.01 0.40 0.28 95 1006.4
20190915112905 58 177 2.0 4.0 0.01 0.40 0.28 95 1006.4
20190915112404 58 136 2.0 4.0 0.01 0.40 0.28 95 1006.8
20190915111903 58 144 2.0 6.0 0.01 0.40 0.28 95 1007.1
20190915111402 58 176 1.0 7.0 0.00 0.39 0.27 95 1007.1
20190915110901 59 214 2.0 7.0 0.01 0.39 0.27 95 1006.8
20190915110400 59 132 2.0 7.0 0.02 0.39 0.27 95 1006.8
20190915105859 59 204 0.0 7.0 0.03 0.39 0.27 95 1006.8
20190915105358 59 160 2.0 7.0 0.05 0.39 0.27 95 1006.8
20190915104857 59 201 1.0 6.0 0.07 0.39 0.27 95 1006.8
20190915104357 59 145 4.0 6.0 0.08 0.39 0.27 95 1007.1
20190915103856 59 152 2.0 5.0 0.09 0.39 0.27 95 1007.1
20190915103355 59 121 1.0 5.0 0.10 0.39 0.27 95 1007.1
20190915102854 59 144 2.0 5.0 0.12 0.39 0.27 95 1007.1
20190915102353 59 121 1.0 8.0 0.15 0.39 0.27 95 1007.1
20190915101852 59 150 2.0 8.0 0.17 0.39 0.27 95 1007.1
20190915101352 59 154 1.0 8.0 0.21 0.39 0.27 95 1007.1
20190915100851 59 150 3.0 8.0 0.22 0.38 0.26 95 1007.1
20190915100350 59 185 3.0 8.0 0.22 0.37 0.25 95 1007.1
20190915095849 59 176 3.0 8.0 0.21 0.36 0.24 95 1007.1
20190915095348 59 145 2.0 8.0 0.20 0.34 0.22 95 1007.1
20190915094847 59 170 3.0 8.0 0.18 0.32 0.20 94 1007.5
20190915094346 59 150 2.0 6.0 0.17 0.31 0.19 94 1007.5
20190915093846 60 162 2.0 6.0 0.17 0.30 0.18 95 1007.5
20190915093344 60 169 3.0 7.0 0.15 0.28 0.16 95 1007.5
20190915092844 60 152 3.0 9.0 0.14 0.27 0.15 94 1007.5
20190915092343 60 178 1.0 9.0 0.11 0.24 0.12 94 1007.5
20190915091842 60 214 1.0 9.0 0.09 0.22 0.10 94 1007.5
20190915091341 60 145 4.0 9.0 0.05 0.18 0.06 94 1007.8
20190915090841 60 152 2.0 6.0 0.03 0.16 0.04 95 1007.8
20190915090340 60 181 2.0 6.0 0.02 0.15 0.03 95 1007.8
20190915085839 60 162 2.0 5.0 0.02 0.15 0.03 95 1007.8
20190915085338 60 118 2.0 5.0 0.01 0.14 0.02 95 1007.8
20190915084837 60 140 2.0 5.0 0.01 0.14 0.02 95 1007.8
20190915084337 60 111 1.0 4.0 0.01 0.14 0.02 95 1007.8
20190915083836 60 155 1.0 4.0 0.00 0.13 0.01 96 1008.1
20190915083335 60 158 1.0 2.0 0.00 0.13 0.01 96 1008.1
20190915082834 60 173 1.0 2.0 0.00 0.13 0.01 96 1007.8
20190915082334 60 130 1.0 2.0 0.00 0.13 0.01 96 1007.8
20190915081833 60 104 1.0 2.0 0.01 0.13 0.01 96 1008.1
20190915081332 60 115 2.0 2.0 0.01 0.13 0.01 96 1007.8
20190915080831 60 140 1.0 1.0 0.01 0.13 0.01 96 1008.1
20190915080330 60 172 0.0 1.0 0.01 0.13 0.01 96 1008.1
20190915075829 60 96 0.0 1.0 0.01 0.13 0.01 96 1008.1
20190915075328 60 150 0.0 1.0 0.02 0.13 0.01 96 1008.5
20190915074827 59 122 1.0 2.0 0.02 0.13 0.01 96 1008.5
20190915074326 59 142 1.0 2.0 0.02 0.13 0.01 96 1008.5
20190915073825 59 194 1.0 2.0 0.03 0.13 0.01 95 1008.5
20190915073325 59 140 1.0 2.0 0.03 0.13 0.01 95 1008.8
20190915072824 60 132 0.0 3.0 0.03 0.13 0.01 95 1008.8
20190915072323 60 143 0.0 3.0 0.04 0.13 0.01 95 1008.8
20190915071823 60 143 0.0 3.0 0.04 0.12 0.00 95 1008.8
20190915071322 60 145 2.0 3.0 0.05 0.12 0.00 95 1008.8
20190915070821 60 187 0.0 2.0 0.05 0.12 0.00 95 1009.1
20190915070321 60 146 0.0 2.0 0.06 0.12 0.00 95 1009.1
20190915065819 60 108 0.0 2.0 0.06 0.12 0.12 95 1009.1
20190915065319 60 117 0.0 2.0 0.05 0.11 0.11 95 1009.1
20190915064818 60 107 1.0 2.0 0.05 0.11 0.11 95 1009.1
20190915064317 60 128 2.0 2.0 0.06 0.11 0.11 95 1009.1
20190915063816 60 127 0.0 3.0 0.05 0.10 0.10 95 1009.1
20190915063315 60 127 0.0 3.0 0.05 0.10 0.10 94 1009.5
20190915062815 60 127 0.0 3.0 0.06 0.10 0.10 94 1009.5
20190915062314 60 136 1.0 3.0 0.05 0.09 0.09 94 1009.5
20190915061813 60 184 1.0 3.0 0.05 0.08 0.08 94 1009.8
20190915061312 60 121 0.0 3.0 0.05 0.07 0.07 94 1009.8
20190915060812 60 165 1.0 4.0 0.05 0.07 0.07 94 1009.8
20190915060310 60 160 0.0 4.0 0.05 0.06 0.06 94 1009.8
20190915055809 60 133 1.0 4.0 0.05 0.06 0.06 94 1009.8
20190915055308 60 180 1.0 4.0 0.05 0.06 0.06 94 1010.2
20190915054808 59 154 2.0 3.0 0.05 0.06 0.06 94 1010.2
20190915054307 59 160 2.0 4.0 0.04 0.05 0.05 94 1010.2
20190915053806 59 118 1.0 4.0 0.04 0.05 0.05 94 1010.2
20190915053306 60 130 2.0 4.0 0.04 0.05 0.05 94 1010.2
20190915052805 60 163 1.0 4.0 0.03 0.04 0.04 93 1010.2
20190915052303 60 113 2.0 3.0 0.04 0.04 0.04 93 1010.5
20190915051803 60 157 1.0 3.0 0.03 0.03 0.03 93 1010.5
20190915051302 60 123 1.0 3.0 0.02 0.02 0.02 93 1010.5
20190915050801 60 141 1.0 3.0 0.02 0.02 0.02 92 1010.5
20190915050300 60 172 0.0 3.0 0.01 0.01 0.01 92 1010.5
20190915045759 60 156 2.0 3.0 0.01 0.01 0.01 92 1010.8
20190915045258 60 149 1.0 2.0 0.01 0.01 0.01 91 1010.8
20190915044757 60 129 1.0 2.0 0.01 0.01 0.01 91 1010.8
20190915044256 60 157 1.0 3.0 0.01 0.01 0.01 90 1010.8
20190915043756 60 155 0.0 3.0 0.01 0.01 0.01 90 1010.8
20190915043254 60 228 1.0 3.0 0.01 0.01 0.01 89 1010.8
20190915042754 61 175 2.0 4.0 0.01 0.01 0.01 88 1010.8
20190915042253 61 165 1.0 4.0 0.00 0.00 0.00 87 1010.8
20190915041753 61 139 1.0 4.0 0.00 0.00 0.00 86 1010.8
20190915041251 62 153 1.0 4.0 0.00 0.00 0.00 84 1010.8
20190915040751 62 200 2.0 7.0 0.00 0.00 0.00 83 1010.8
20190915040250 63 194 2.0 7.0 0.00 0.00 0.00 82 1010.8
20190915035749 63 153 1.0 7.0 0.00 0.00 0.00 81 1010.5
20190915035248 63 219 2.0 7.0 0.00 0.00 0.00 80 1010.5
20190915034748 63 161 2.0 11.0 0.00 0.00 0.00 80 1010.5
20190915034247 63 171 2.0 12.0 0.00 0.00 0.00 80 1010.5
20190915033746 63 171 2.0 12.0 0.00 0.00 0.00 79 1010.5
20190915033246 64 158 5.0 13.0 0.00 0.00 0.00 77 1010.5
20190915032745 64 179 2.0 13.0 0.00 0.00 0.00 75 1010.5
20190915032243 65 192 5.0 13.0 0.00 0.00 0.00 74 1010.5
20190915031742 65 160 5.0 13.0 0.00 0.00 0.00 72 1010.8
20190915031241 65 188 7.0 13.0 0.00 0.00 0.00 71 1010.5
20190915030741 65 199 2.0 7.0 0.00 0.00 0.00 71 1010.5
20190915030240 65 157 2.0 5.0 0.00 0.00 0.00 71 1010.8
20190915025739 65 182 3.0 8.0 0.00 0.00 0.00 71 1010.8
20190915025238 65 141 1.0 8.0 0.00 0.00 0.00 71 1010.8
20190915024737 65 140 2.0 8.0 0.00 0.00 0.00 70 1010.8
20190915024236 65 172 4.0 8.0 0.00 0.00 0.00 70 1010.8
20190915023735 65 165 2.0 6.0 0.00 0.00 0.00 70 1010.8
20190915023234 65 160 2.0 8.0 0.00 0.00 0.00 69 1010.8
20190915022733 66 131 3.0 8.0 0.00 0.00 0.00 69 1010.8
20190915022233 66 157 3.0 10.0 0.00 0.00 0.00 69 1010.8
20190915021732 66 226 2.0 10.0 0.00 0.00 0.00 68 1010.8
20190915021231 66 182 3.0 10.0 0.00 0.00 0.00 68 1010.8
20190915020730 66 185 2.0 10.0 0.00 0.00 0.00 68 1010.8
20190915020229 66 187 2.0 11.0 0.00 0.00 0.00 68 1010.8
20190915015728 66 163 4.0 11.0 0.00 0.00 0.00 67 1010.8
20190915015228 66 165 4.0 11.0 0.00 0.00 0.00 67 1010.8
20190915014727 66 216 3.0 10.0 0.00 0.00 0.00 67 1010.8
20190915014226 66 155 2.0 8.0 0.00 0.00 0.00 67 1011.2
20190915013725 66 175 4.0 8.0 0.00 0.00 0.00 67 1011.2
20190915013224 66 179 3.0 8.0 0.00 0.00 0.00 68 1011.2
20190915012723 66 177 3.0 10.0 0.00 0.00 0.00 68 1011.2
20190915012222 66 132 2.0 10.0 0.00 0.00 0.00 68 1011.2
20190915011721 66 181 2.0 10.0 0.00 0.00 0.00 69 1011.5
20190915011220 66 172 2.0 9.0 0.00 0.00 0.00 69 1011.5
20190915010719 66 197 2.0 9.0 0.00 0.00 0.00 69 1011.9
20190915010219 66 226 3.0 9.0 0.00 0.00 0.00 69 1011.5
20190915005718 66 169 2.0 8.0 0.00 0.00 0.00 69 1011.5
20190915005217 66 218 3.0 8.0 0.00 0.00 0.00 69 1011.5